Location: Oshawa
(43.9000°N, 78.8670°W)
Time: 19:26:22
(UTC-05:00)

PAYLOAD A - Visible Passes

Search period start: 26 February 2015 00:00
Search period end: 08 March 2015 00:00
Orbit: 691 x 833 km, 98.2° (Epoch: 26 February)

Date Brightness Start Highest point End Pass type
(mag) Time Alt. Az. Time Alt. Az. Time Alt. Az.
26 Feb 7.3 06:17:25 10° ENE 06:19:30 13° E 06:21:50 10° ESE visible
26 Feb 5.2 19:09:57 10° S 19:14:53 45° W 19:19:40 10° NNW visible
27 Feb 4.0 18:32:08 10° SSE 18:37:17 82° ENE 18:42:15 10° NNW visible
27 Feb 7.2 20:14:44 10° WSW 20:16:55 12° W 20:18:48 10° WNW visible
28 Feb 6.2 19:34:33 10° SSW 19:38:54 27° W 19:43:05 10° NW visible
01 Mar 4.6 18:56:07 10° S 19:01:10 60° W 19:06:02 10° NNW visible
02 Mar 6.9 19:59:49 10° SW 20:03:02 16° W 20:06:01 10° NW visible
03 Mar 5.7 19:20:28 10° SSW 19:25:06 35° W 19:29:35 10° NNW visible
04 Mar 4.1 18:42:23 10° S 18:47:26 80° WSW 18:52:20 10° NNW visible
05 Mar 6.6 19:45:19 10° SW 19:49:10 21° W 19:52:49 10° NW visible
06 Mar 7.5 06:14:00 10° ENE 06:15:51 12° E 06:17:59 10° ESE visible
06 Mar 5.1 19:06:31 10° S 19:11:21 47° W 19:16:01 10° NNW visible
07 Mar 7.1 20:11:11 10° WSW 20:13:21 12° W 20:15:13 10° WNW visible
